Lexington Weather

Lexington, Massachusetts, USA

71°F
8/7/2020 10:38am 
  • Lexington Conditions: Mostly cloudy
  • Temperature: 70.9°F / 21.6°CWarmer 1.6°F than last hour.
  • Dew Point: 63.0°FIncreased 0.9°Fsince last hour.
  • Relative Humidity: 76%Decreased 2.0% since last hour.
  • Wind: Calm, 10-min avg: Calm, gust: None
  • Barometer: 30.15 in Steady
  • Visibility: 10 miles
  • Rain Today: 0.00 in
  •   

Regional Weather Roundup
for Boston / Norton, MA

        
000
ASUS41 KBOX 070804
RWRBOX

REGIONAL WEATHER ROUNDUP
NATIONAL WEATHER SERVICE BOSTON/NORTON MA
400 AM EDT FRI AUG 07 2020

NOTE:  "FAIR" INDICATES FEW OR NO CLOUDS BELOW 12,000 FEET WITH NO 
SIGNIFICANT WEATHER AND/OR OBSTRUCTIONS TO VISIBILITY.

MAZALL-070900-
EASTERN MASSACHUSETTS
  
CITY           SKY/WX    TMP DP  RH WIND       PRES   REMARKS
BOSTON         CLOUDY    70  57  63 N6        30.13F                  
BEVERLY        PTCLDY    61  57  87 CALM      30.13S                  
LAWRENCE       PTCLDY    61  58  90 CALM      30.16S                  
BEDFORD        MOCLDY    60  57  89 CALM      30.13S                  
BLUE HILL        N/A     70  54  56 NE10      30.14S                  
NORWOOD        PTCLDY    61  57  87 CALM      30.13S                  
MARSHFIELD     PTCLDY    63  61  94 CALM      30.12F                  
PLYMOUTH       PTCLDY    63  58  83 CALM      30.13S                  
TAUNTON        PTCLDY    61  58  90 CALM      30.12S                  
NEW BEDFORD    PTCLDY    63  61  93 CALM      30.12S                  
$$

MAZALL-070900-
CAPE COD AND THE ISLANDS
  
CITY           SKY/WX    TMP DP  RH WIND       PRES   REMARKS
FALMOUTH       CLEAR     66  57  72 N5        30.14S                  
HYANNIS        PTCLDY    64  60  87 E3        30.11S                  
CHATHAM        CLOUDY    67  62  84 CALM      30.14S                  
PROVINCETOWN   PTCLDY    61  57  87 CALM      30.13S                  
NANTUCKET      PTCLDY    65  63  93 NE5       30.12F                  
MARTHAS VNYRD  CLEAR     61  59  93 CALM      30.12S                  
$$
 
MAZALL-070900-
CENTRAL AND WESTERN MASSACHUSETTS
  
CITY           SKY/WX    TMP DP  RH WIND       PRES   REMARKS
WORCESTER      MOCLDY    69  49  48 N3        30.17R                  
FITCHBURG      MOCLDY    61  55  81 N5        30.16S                  
ORANGE         CLOUDY    61  58  90 CALM      30.17R                  
SPRINGFIELD    MOCLDY    62  60  93 CALM      30.13R                  
WESTFIELD      CLOUDY    63  59  87 N5        30.14R                  
NORTH ADAMS    CLOUDY    59  56  89 CALM      30.16S                  
PITTSFIELD     CLOUDY    61  58  90 CALM      30.15F                  
$$
 
RIZALL-070900-
RHODE ISLAND
  
CITY           SKY/WX    TMP DP  RH WIND       PRES   REMARKS
PROVIDENCE     PTCLDY    67  62  84 CALM      30.12F                  
NEWPORT        PTCLDY    67  63  87 CALM      30.12S                  
BLOCK ISLAND   PTCLDY    66  62  87 CALM      30.12S                  
SMITHFIELD     MOCLDY    66  62  87 NE6       30.14S                  
WESTERLY       MOCLDY    65  61  87 CALM      30.12S                  
$$
 
CTZALL-070900-
CONNECTICUT
  
CITY           SKY/WX    TMP DP  RH WIND       PRES   REMARKS
BRADLEY INTL   MOCLDY    64  58  80 N5        30.12R                  
HARTFORD       MOCLDY    69  62  78 N5        30.12R                  
BRIDGEPORT     NOT AVBL                                               
DANBURY        PTCLDY    67  64  90 CALM      30.13S                  
GROTON         MOCLDY    68  64  87 CALM      30.10S                  
NEW HAVEN      CLOUDY    71  66  84 CALM      30.11S                  
CHESTER        NOT AVBL                                               
MERIDEN        NOT AVBL                                               
WILLIMANTIC    MOCLDY    64  61  90 N3        30.13S                  
OXFORD         MOCLDY    67  62  84 N3        30.14S                  
$$

MEZ002-015-021-024-NHZ003-005-008-011-012-014-VTZ005-008-070900-
NORTHERN NEW ENGLAND
  
CITY           SKY/WX    TMP DP  RH WIND       PRES   REMARKS
PORTLAND ME    PTCLDY    62  56  80 CALM      30.16R                  
BANGOR ME      PTCLDY    57  53  86 CALM      30.16R                  
CONCORD NH     MOCLDY    53  50  89 E3        30.17R                  
MANCHESTER NH  MOCLDY    63  56  78 N5        30.14S                  
NASHUA NH      MOCLDY    60  57  89 NW5       30.16S                  
PORTSMOUTH NH  MOCLDY    60  55  83 NW3       30.14R                  
JAFFREY NH     MOCLDY    55  52  89 CALM      30.18S                  
KEENE NH       MOCLDY    55  54  96 CALM      30.18R                  
BURLINGTON VT  CLEAR     59  54  83 NE3       30.16S                  
MT. WASHINGTON MOCLDY    45  37  76 W9          N/A                   
$$

NYZ052-076-070900-
EASTERN NEW YORK
  
CITY           SKY/WX    TMP DP  RH WIND       PRES   REMARKS
ALBANY         MOCLDY    59  59 100 N3        30.14S                  
NEW YORK CITY  CLOUDY    75  60  59 E7        30.08S                  
$$
 
ANZALL-070900-
MARINE OBSERVATIONS
  
STATION/POSITION TIME  TEMP    WIND        PRES    VSBY  WAVE
                       AIR SEA DIR/SP/G                  HT/PER
                 (UTC) (F)     (DEG/KT/KT) (MB)    (MI)  (FT/S)
BOSTON BUOY      0750   66 64  360/  6/  6 1019.1R         1/11
BUZZARDS BAY     0700           50/  6/  6 1020.9F
NANTUCKET SOUND  0750      77   40/  6/  8   N/A           1
MASS BAY-STELLWA 0704   65      20/  6/  6 1018.0F  1 7/8  1/11
ISLE OF SHOALS   0700   63     320/  5/  5 1020.2F
S OF BLOCK IS    0726      72                N/A           2/11
$$

......................KEY.........................
  SKY/WX - SKY CONDITION/PRESENT WEATHER
  TMP    - TEMPERATURE IN FAHRENHEIT
  DWPT   - DEWPOINT IN FAHRENHEIT
  RH     - RELATIVE HUMIDITY IN PERCENT
  WIND   - DIRECTION AND SPEED IN MPH
  PRES   - MEAN SEA LEVEL PRESSURE IN INCHES OF HG
  WCI    - WIND CHILL INDEX
  VSB    - VISIBILITY IN MILES
  HX     - HEAT INDEX
  TC     - TEMPERATURE IN CELSIUS
  VRB    - VARIABLE WIND DIRECTION
  N/A    - NOT AVAILABLE
  
      

Other recent Regional Weather Roundups

Fri Aug 7, 10:04am

Fri Aug 7, 9:04am

Fri Aug 7, 8:04am

Fri Aug 7, 7:04am

Fri Aug 7, 6:04am

Fri Aug 7, 5:04am

Fri Aug 7, 3:04am

Fri Aug 7, 2:04am

Fri Aug 7, 1:05am

Fri Aug 7, 12:04am

Thu Aug 6, 11:04pm

Thu Aug 6, 10:04pm

Thu Aug 6, 9:04pm

Thu Aug 6, 8:04pm

Thu Aug 6, 7:04pm

Thu Aug 6, 6:04pm

Thu Aug 6, 5:04pm

Thu Aug 6, 4:05pm

Thu Aug 6, 3:04pm

Thu Aug 6, 2:05pm

Thu Aug 6, 1:04pm

Thu Aug 6, 12:04pm

Thu Aug 6, 11:04am

Thu Aug 6, 10:04am

Thu Aug 6, 9:04am

Thu Aug 6, 8:04am

Thu Aug 6, 7:04am

Thu Aug 6, 6:04am

Thu Aug 6, 5:04am

Thu Aug 6, 4:04am

Thu Aug 6, 3:04am

Thu Aug 6, 2:05am

Thu Aug 6, 1:04am

Thu Aug 6, 12:04am

Wed Aug 5, 11:04pm

Wed Aug 5, 10:04pm

Wed Aug 5, 9:04pm

Wed Aug 5, 8:05pm

Wed Aug 5, 7:04pm

Wed Aug 5, 6:04pm

Wed Aug 5, 5:04pm

Wed Aug 5, 4:05pm

Wed Aug 5, 3:04pm

Wed Aug 5, 2:04pm

Wed Aug 5, 1:04pm

Wed Aug 5, 12:04pm

Wed Aug 5, 11:04am

Wed Aug 5, 10:04am

Wed Aug 5, 9:04am

Wed Aug 5, 8:04am

Wed Aug 5, 7:04am

Wed Aug 5, 6:04am

Wed Aug 5, 5:04am

Wed Aug 5, 4:04am

Wed Aug 5, 3:04am

Wed Aug 5, 2:05am

Wed Aug 5, 1:04am

Wed Aug 5, 12:05am

Tue Aug 4, 11:05pm

Tue Aug 4, 10:05pm

Tue Aug 4, 9:04pm

Tue Aug 4, 8:04pm

Tue Aug 4, 7:05pm

Tue Aug 4, 6:05pm

Tue Aug 4, 5:05pm

Tue Aug 4, 4:05pm

Tue Aug 4, 3:04pm

Tue Aug 4, 2:05pm

Tue Aug 4, 1:04pm

Tue Aug 4, 12:05pm

Tue Aug 4, 11:04am

Tue Aug 4, 10:04am

Tue Aug 4, 9:04am

Tue Aug 4, 8:04am

Tue Aug 4, 7:04am

Tue Aug 4, 6:04am

Tue Aug 4, 5:04am

Tue Aug 4, 4:04am

Tue Aug 4, 3:04am

Tue Aug 4, 2:04am

Tue Aug 4, 1:04am

Tue Aug 4, 12:04am

Mon Aug 3, 11:04pm

Mon Aug 3, 10:04pm

Mon Aug 3, 9:04pm

Mon Aug 3, 8:05pm

Mon Aug 3, 7:04pm

Mon Aug 3, 6:04pm

Mon Aug 3, 5:04pm

Mon Aug 3, 4:05pm

Mon Aug 3, 3:04pm

Mon Aug 3, 2:04pm

Mon Aug 3, 1:04pm

Mon Aug 3, 12:05pm

Mon Aug 3, 11:04am

Mon Aug 3, 10:04am

Mon Aug 3, 9:05am

Mon Aug 3, 8:04am

Mon Aug 3, 7:04am

Mon Aug 3, 6:04am

Mon Aug 3, 5:04am

Mon Aug 3, 4:04am

Mon Aug 3, 3:04am

Mon Aug 3, 2:04am

Mon Aug 3, 1:04am

Mon Aug 3, 12:05am

Sun Aug 2, 11:04pm

Sun Aug 2, 10:04pm

Sun Aug 2, 9:04pm

Sun Aug 2, 8:04pm

Sun Aug 2, 7:04pm

Sun Aug 2, 6:04pm

Sun Aug 2, 5:04pm

Sun Aug 2, 4:05pm

Sun Aug 2, 3:04pm

Sun Aug 2, 2:05pm

Sun Aug 2, 1:04pm

Sun Aug 2, 12:04pm

Sun Aug 2, 11:04am

Sun Aug 2, 10:04am

Sun Aug 2, 9:05am

Sun Aug 2, 8:05am

Sun Aug 2, 7:04am

Sun Aug 2, 6:04am

Sun Aug 2, 5:04am

Sun Aug 2, 4:05am

Sun Aug 2, 3:04am

Sun Aug 2, 2:04am

Sun Aug 2, 1:04am

Sun Aug 2, 12:05am

Sat Aug 1, 11:04pm

Sat Aug 1, 10:04pm

Sat Aug 1, 9:04pm

Sat Aug 1, 8:05pm

Sat Aug 1, 7:04pm

Sat Aug 1, 6:04pm

Sat Aug 1, 5:05pm

Sat Aug 1, 4:05pm

Sat Aug 1, 3:04pm

Sat Aug 1, 2:04pm

Sat Aug 1, 1:04pm

Sat Aug 1, 12:04pm

Sat Aug 1, 11:05am

Sat Aug 1, 10:05am

Sat Aug 1, 9:04am

Sat Aug 1, 8:04am

Sat Aug 1, 7:04am

Sat Aug 1, 6:04am

Sat Aug 1, 5:04am

Sat Aug 1, 4:05am

Sat Aug 1, 3:04am

Sat Aug 1, 2:04am

Sat Aug 1, 1:04am

Sat Aug 1, 12:05am

Fri Jul 31, 11:05pm

Fri Jul 31, 10:04pm

Fri Jul 31, 9:04pm

Fri Jul 31, 8:05pm

Fri Jul 31, 7:05pm

Fri Jul 31, 6:04pm

Fri Jul 31, 5:04pm

Fri Jul 31, 4:05pm

Fri Jul 31, 3:04pm

Fri Jul 31, 2:05pm

Fri Jul 31, 1:04pm

Fri Jul 31, 12:04pm

Fri Jul 31, 11:04am

Meta data:

ID: ac51d601-44b6-45c3-94f7-4afa5f1e9c51
Link: https://api.weather.gov/products/ac51d601-44b6-45c3-94f7-4afa5f1e9c51